Simultaneous Nadir Overpasses (SNOs) Predictions

Prediction of SNOs between METOP-B and TERRA Satellite Orbit:

Table of predicted SNOs for the next 14.0 days since TLE Epoch: 12/31/2016
Index Date (METOP-B) Time (METOP-B) Lat,Lon (METOP-B) SZA (METOP-B ) Date (TERRA) Time (TERRA) Lat,Lon (TERRA) SZA (TERRA ) Distance(km) Time Diff (sec)
1 12/31/2016 11:54:54 -81.29,-132.01 73.19 12/31/2016 11:56:07 -81.28,-132.15 73.18 2.58 73
2 12/31/2016 12:45:34 81.29, 35.45 106.83 12/31/2016 12:45:33 81.29, 35.63 106.85 3.05 1
3 12/31/2016 13:36:06 -81.33,-153.61 72.76 12/31/2016 13:34:52 -81.44,-153.79 72.74 12.36 74
4 01/03/2017 07:29:15 -81.29, -65.65 73.48 01/03/2017 07:30:21 -81.30, -65.48 73.43 2.89 66
5 01/03/2017 08:19:54 81.30, 102.18 106.58 01/03/2017 08:19:47 81.30, 102.29 106.59 1.91 7
6 01/06/2017 03:03:35 -81.29, 1.07 73.78 01/06/2017 03:04:36 -81.29, 0.88 73.78 3.23 61
7 01/06/2017 03:54:15 81.30, 168.50 106.23 01/06/2017 03:54:02 81.30, 168.64 106.24 2.38 13
8 01/08/2017 22:37:55 -81.29, 67.38 74.19 01/08/2017 22:38:50 -81.29, 67.32 74.18 1.05 55
9 01/08/2017 23:28:34 81.30,-124.81 105.86 01/08/2017 23:28:16 81.30,-124.94 105.84 2.09 18
10 01/11/2017 18:12:16 -81.29, 133.67 74.66 01/11/2017 18:13:05 -81.30, 133.83 74.62 2.83 49




NCC Satellite Simultaneous Nadir Overpasses (SNOs) Prediction Service
